TimeAST,TemperatureF,Dew PointF,Humidity,Sea Level PressureIn,VisibilityMPH,Wind Direction,Wind SpeedMPH,Gust SpeedMPH,PrecipitationIn,Events,Conditions,WindDirDegrees,DateUTC
12:00 AM,84,68,50,29.81,6,North,1.2,,,,Scattered Clouds,0,2012-10-31 21:00:00
12:00 AM,84.2,68.0,58,29.86,-9999.0,North,1.2,-,N/A,,Clear,360,2012-10-31 21:00:00
1:00 AM,84.2,68.0,58,29.86,-9999.0,Calm,Calm,-,N/A,,Clear,0,2012-10-31 22:00:00
2:00 AM,82.4,62.6,51,29.86,-9999.0,Calm,Calm,-,N/A,,Clear,0,2012-10-31 23:00:00
3:00 AM,82,64,46,29.78,6,Calm,Calm,,,,,,2012-11-01 00:00:00
3:00 AM,82.4,64.4,54,29.83,-9999.0,Calm,Calm,-,N/A,,Clear,0,2012-11-01 00:00:00
4:00 AM,80.6,66.2,61,29.83,-9999.0,Calm,Calm,-,N/A,,Clear,0,2012-11-01 01:00:00
5:00 AM,82.4,66.2,58,29.83,-9999.0,Calm,Calm,-,N/A,,Clear,0,2012-11-01 02:00:00
6:00 AM,80,61,42,29.82,6,Calm,Calm,,,,,,2012-11-01 03:00:00
6:00 AM,78.8,60.8,54,29.86,-9999.0,Calm,Calm,-,N/A,,Clear,0,2012-11-01 03:00:00
7:00 AM,78.8,62.6,57,29.89,-9999.0,Calm,Calm,-,N/A,,Clear,0,2012-11-01 04:00:00
8:00 AM,80.6,64.4,58,29.92,-9999.0,South,2.3,-,N/A,,Clear,180,2012-11-01 05:00:00
9:00 AM,85,68,47,29.89,6,Calm,Calm,,,,,,2012-11-01 06:00:00
9:00 AM,84.2,68.0,58,29.92,-9999.0,Calm,Calm,-,N/A,,Clear,0,2012-11-01 06:00:00
10:00 AM,89.6,69.8,52,29.92,-9999.0,Calm,Calm,-,N/A,,Clear,0,2012-11-01 07:00:00
11:00 AM,93.2,69.8,46,29.92,-9999.0,Calm,Calm,-,N/A,,Clear,0,2012-11-01 08:00:00
12:00 PM,95,68,32,29.85,6,South,2.3,,,,,190,2012-11-01 09:00:00
12:00 PM,95.0,68.0,41,29.89,-9999.0,South,2.3,-,N/A,,Clear,190,2012-11-01 09:00:00
1:00 PM,96.8,66.2,37,29.86,-9999.0,SW,2.3,-,N/A,,Clear,230,2012-11-01 10:00:00
2:00 PM,98.6,64.4,32,29.86,-9999.0,WSW,2.3,-,N/A,,Clear,240,2012-11-01 11:00:00
3:00 PM,99,59,18,29.78,6,South,3.5,,,,Scattered Clouds,190,2012-11-01 12:00:00
3:00 PM,98.6,59.0,27,29.83,6.2,South,3.5,-,N/A,,Partly Cloudy,190,2012-11-01 12:00:00
4:00 PM,98.6,60.8,29,29.83,6.2,SW,4.6,-,N/A,,Partly Cloudy,220,2012-11-01 13:00:00
5:00 PM,96.8,60.8,30,29.83,-9999.0,WSW,5.8,-,N/A,,Clear,240,2012-11-01 14:00:00
6:00 PM,91,64,31,29.79,6,SSW,6.9,,,,,210,2012-11-01 15:00:00
6:00 PM,91.4,64.4,41,29.83,-9999.0,SSW,6.9,-,N/A,,Clear,210,2012-11-01 15:00:00
7:00 PM,89.6,66.2,46,29.86,-9999.0,SSW,3.5,-,N/A,,Clear,210,2012-11-01 16:00:00
8:00 PM,87.8,66.2,49,29.89,-9999.0,SW,2.3,-,N/A,,Clear,220,2012-11-01 17:00:00
9:00 PM,87,68,44,29.85,6,Calm,Calm,,,,Clear,,2012-11-01 18:00:00
9:00 PM,87.8,68.0,52,29.89,-9999.0,Calm,Calm,-,N/A,,Clear,0,2012-11-01 18:00:00
10:00 PM,86.0,68.0,55,29.89,-9999.0,Calm,Calm,-,N/A,,Clear,0,2012-11-01 19:00:00
11:00 PM,86.0,68.0,55,29.89,-9999.0,Calm,Calm,-,N/A,,Clear,0,2012-11-01 20:00:00